TimeEST,TemperatureF,Dew PointF,Humidity,Sea Level PressureIn,VisibilityMPH,Wind Direction,Wind SpeedMPH,Gust SpeedMPH,PrecipitationIn,Events,Conditions,WindDirDegrees,DateUTC
12:53 AM,15.1,7.0,70,30.24,10.0,SSW,9.2,-,N/A,,Overcast,210,2013-02-02 05:53:00
1:53 AM,16.0,10.0,77,30.22,3.0,SSW,10.4,-,0.00,Snow,Light Snow,210,2013-02-02 06:53:00
2:18 AM,15.8,10.4,79,30.17,2.0,SSW,11.5,-,0.00,Snow,Light Snow,210,2013-02-02 07:18:00
2:27 AM,15.8,10.4,79,30.17,1.8,SW,11.5,-,0.00,Snow,Light Snow,220,2013-02-02 07:27:00
2:34 AM,15.8,10.4,79,30.17,2.0,SSW,12.7,-,0.00,Snow,Light Snow,210,2013-02-02 07:34:00
2:51 AM,15.8,10.4,79,30.16,2.0,SSW,12.7,-,0.00,Snow,Light Snow,210,2013-02-02 07:51:00
2:53 AM,16.0,10.9,81,30.21,2.0,SSW,12.7,-,0.00,Snow,Light Snow,210,2013-02-02 07:53:00
3:02 AM,15.8,10.4,79,30.16,1.8,SSW,11.5,-,0.00,Snow,Light Snow,210,2013-02-02 08:02:00
3:53 AM,17.1,12.9,84,30.18,1.0,SSW,11.5,-,0.00,Snow,Light Snow,200,2013-02-02 08:53:00
4:37 AM,17.6,12.2,79,30.09,2.0,South,12.7,-,0.00,Snow,Light Snow,190,2013-02-02 09:37:00
4:42 AM,17.6,12.2,79,30.09,1.8,South,12.7,-,0.00,Snow,Light Snow,190,2013-02-02 09:42:00
4:50 AM,17.6,12.2,79,30.08,2.5,South,15.0,-,0.00,Snow,Light Snow,190,2013-02-02 09:50:00
4:53 AM,17.1,12.9,84,30.12,2.5,South,13.8,-,0.00,Snow,Light Snow,190,2013-02-02 09:53:00
5:17 AM,17.6,12.2,79,30.06,1.8,SSW,16.1,-,0.00,Snow,Light Snow,200,2013-02-02 10:17:00
5:34 AM,17.6,12.2,79,30.06,2.0,SSW,15.0,-,0.00,Snow,Light Snow,200,2013-02-02 10:34:00
5:39 AM,17.6,12.2,79,30.06,3.0,SSW,13.8,-,0.00,Snow,Light Snow,200,2013-02-02 10:39:00
5:53 AM,18.0,12.9,81,30.10,5.0,SSW,15.0,-,0.00,Snow,Light Snow,200,2013-02-02 10:53:00
6:02 AM,17.6,12.2,79,30.05,6.0,SSW,15.0,-,0.00,Snow,Light Snow,200,2013-02-02 11:02:00
6:18 AM,17.6,12.2,79,30.05,2.5,SSW,13.8,-,0.00,Snow,Light Snow,200,2013-02-02 11:18:00
6:25 AM,17.6,12.2,79,30.04,3.0,SSW,13.8,-,0.00,Snow,Light Snow,210,2013-02-02 11:25:00
6:45 AM,19.4,14.0,80,30.04,1.8,SSW,15.0,-,0.00,Snow,Light Snow,200,2013-02-02 11:45:00
6:53 AM,19.0,14.0,81,30.09,1.0,SSW,15.0,23.0,0.00,Snow,Light Snow,200,2013-02-02 11:53:00
7:03 AM,17.6,14.0,86,30.04,0.8,SSW,15.0,-,0.00,Snow,Light Snow,200,2013-02-02 12:03:00
7:22 AM,19.4,14.0,80,30.03,1.0,SSW,12.7,-,0.00,Snow,Light Snow,200,2013-02-02 12:22:00
7:53 AM,19.0,15.1,85,30.07,1.0,SSW,13.8,-,0.00,Snow,Light Snow,210,2013-02-02 12:53:00
8:01 AM,19.4,15.8,86,30.02,0.8,SSW,12.7,-,0.00,Snow,Light Snow,210,2013-02-02 13:01:00
8:08 AM,19.4,15.8,86,30.02,0.5,SSW,12.7,-,0.00,Fog-Snow,Snow,210,2013-02-02 13:08:00
8:28 AM,19.4,15.8,86,30.02,0.5,SSW,10.4,-,0.00,Fog-Snow,Light Snow,210,2013-02-02 13:28:00
8:40 AM,19.4,15.8,86,30.02,1.0,SSW,11.5,-,0.00,Snow,Light Snow,210,2013-02-02 13:40:00
8:53 AM,19.9,16.0,85,30.06,0.5,SSW,10.4,-,0.00,Fog-Snow,Snow,210,2013-02-02 13:53:00
9:06 AM,19.4,15.8,86,30.01,0.8,SW,10.4,-,0.00,Snow,Light Snow,220,2013-02-02 14:06:00
9:21 AM,19.4,17.6,93,30.01,0.5,SW,10.4,-,0.00,Fog-Snow,Light Snow,220,2013-02-02 14:21:00
9:31 AM,21.2,17.6,86,30.01,0.8,SW,9.2,-,0.00,Snow,Light Snow,220,2013-02-02 14:31:00
9:53 AM,21.0,17.1,85,30.05,1.2,SW,11.5,-,0.00,Snow,Light Snow,220,2013-02-02 14:53:00
10:06 AM,21.2,17.6,86,30.00,1.2,SW,11.5,-,0.00,Snow,Light Snow,220,2013-02-02 15:06:00
10:15 AM,21.2,17.6,86,30.00,3.0,SW,12.7,-,0.00,Snow,Light Snow,220,2013-02-02 15:15:00
10:38 AM,21.2,17.6,86,29.99,5.0,SW,12.7,-,0.00,,Overcast,220,2013-02-02 15:38:00
10:53 AM,21.9,17.1,82,30.03,4.0,SW,9.2,-,0.00,,Haze,230,2013-02-02 15:53:00
11:53 AM,23.0,17.1,78,30.02,10.0,SW,11.5,-,0.00,,Overcast,230,2013-02-02 16:53:00
12:29 PM,23.0,17.6,80,29.96,10.0,WSW,15.0,-,N/A,,Overcast,240,2013-02-02 17:29:00
12:46 PM,24.8,17.6,74,29.95,9.0,WSW,11.5,-,N/A,,Overcast,240,2013-02-02 17:46:00
12:53 PM,24.1,18.0,77,29.99,8.0,WSW,13.8,-,N/A,,Overcast,250,2013-02-02 17:53:00
1:39 PM,24.8,19.4,80,29.94,6.0,WSW,11.5,-,N/A,,Haze,240,2013-02-02 18:39:00
1:46 PM,24.8,19.4,80,29.93,7.0,WSW,13.8,-,N/A,,Overcast,250,2013-02-02 18:46:00
1:53 PM,24.1,19.0,81,29.97,6.0,WSW,12.7,-,N/A,,Haze,250,2013-02-02 18:53:00
2:09 PM,24.8,19.4,80,29.93,6.0,WSW,12.7,-,N/A,,Haze,250,2013-02-02 19:09:00
2:29 PM,24.8,19.4,80,29.93,2.0,West,12.7,-,0.00,Snow,Light Snow,260,2013-02-02 19:29:00
2:38 PM,24.8,19.4,80,29.93,1.8,West,10.4,-,0.00,Snow,Light Snow,260,2013-02-02 19:38:00
2:53 PM,25.0,19.9,81,29.97,1.2,WSW,12.7,-,0.00,Snow,Light Snow,250,2013-02-02 19:53:00
3:24 PM,21.2,15.8,80,29.94,1.8,North,15.0,-,0.00,Snow,Light Snow,360,2013-02-02 20:24:00
3:53 PM,21.0,15.1,78,30.00,1.2,North,11.5,-,0.00,Snow,Light Snow,350,2013-02-02 20:53:00
4:21 PM,21.2,15.8,80,29.97,2.0,North,5.8,-,0.00,Snow,Light Snow,360,2013-02-02 21:21:00
4:29 PM,21.2,15.8,80,29.97,1.8,North,5.8,-,0.00,Snow,Light Snow,10,2013-02-02 21:29:00
4:39 PM,21.2,15.8,80,29.97,2.5,North,5.8,-,0.00,Snow,Light Snow,10,2013-02-02 21:39:00
4:53 PM,21.0,16.0,81,30.02,3.0,North,5.8,-,0.00,Snow,Light Snow,10,2013-02-02 21:53:00
5:53 PM,19.9,12.9,74,30.03,10.0,NE,6.9,-,0.00,,Overcast,40,2013-02-02 22:53:00
6:53 PM,18.0,12.0,78,30.05,9.0,North,4.6,-,N/A,,Overcast,10,2013-02-02 23:53:00
7:37 PM,17.6,10.4,73,30.01,10.0,North,6.9,-,N/A,,Overcast,10,2013-02-03 00:37:00
7:53 PM,18.0,10.9,74,30.05,10.0,North,6.9,-,N/A,,Overcast,10,2013-02-03 00:53:00
8:53 PM,18.0,10.9,74,30.06,10.0,NNW,4.6,-,N/A,,Overcast,340,2013-02-03 01:53:00
9:53 PM,17.1,9.0,71,30.06,10.0,North,6.9,-,N/A,,Overcast,350,2013-02-03 02:53:00
10:53 PM,17.1,10.0,74,30.05,10.0,North,4.6,-,N/A,,Overcast,360,2013-02-03 03:53:00
11:53 PM,17.1,9.0,71,30.04,10.0,Calm,Calm,-,N/A,,Overcast,0,2013-02-03 04:53:00